Simultaneous Nadir Overpasses (SNOs) Predictions

Prediction of SNOs between LANDSAT-8 and METOP-B Satellite Orbit:

Table of predicted SNOs for the next 14.0 days since TLE Epoch: 7/11/2020
Index Date (LANDSAT-8) Time (LANDSAT-8) Lat,Lon (LANDSAT-8) SZA (LANDSAT-8 ) Date (METOP-B) Time (METOP-B) Lat,Lon (METOP-B) SZA (METOP-B ) Distance(km) Time Diff (sec)
1 07/12/2020 09:53:22 81.17, 72.47 61.40 07/12/2020 09:53:08 81.17, 72.30 61.37 2.92 14
2 07/12/2020 10:42:48 -81.19,-119.60 118.56 07/12/2020 10:43:47 -81.19,-119.59 118.53 0.18 59
3 07/15/2020 05:27:38 81.18, 138.99 61.83 07/15/2020 05:27:28 81.18, 139.14 61.84 2.57 10
4 07/15/2020 06:17:04 -81.20, -53.05 118.13 07/15/2020 06:18:08 -81.19, -53.13 118.11 1.39 64
5 07/18/2020 01:01:54 81.18,-154.52 62.30 07/18/2020 01:01:49 81.18,-154.42 62.31 1.71 5
6 07/18/2020 01:51:20 -81.20, 13.47 117.65 07/18/2020 01:52:29 -81.19, 13.32 117.64 2.66 69
7 07/20/2020 19:46:44 -81.16, 103.91 117.25 07/20/2020 19:45:31 -81.15, 103.75 117.30 2.75 73
8 07/20/2020 20:36:09 81.18, -88.05 62.82 07/20/2020 20:36:09 81.18, -87.99 62.83 1.11 0
9 07/20/2020 21:25:35 -81.20, 79.96 117.12 07/20/2020 21:26:48 -81.20, 80.14 117.07 3.03 73
10 07/23/2020 15:21:00 -81.16, 170.37 116.68 07/23/2020 15:19:51 -81.16, 170.55 116.69 3.11 69
